| time (UTC) | temp C | wind direction | speed KPH | gust KPH | rain 1hr cm | rain 24hr cm | rain mn cm | humidity % | barometer mb |
| 20260502194600 | 13 | 316 | 0.0 | 4.8 | 0.00 | 0.03 | 0.03 | 69 | 1012.0 |
| 20260502194501 | 13 | 316 | 1.6 | 4.8 | 0.00 | 0.03 | 0.03 | 69 | 1012.0 |
| 20260502193049 | 13 | 312 | 3.2 | 9.7 | 0.00 | 0.03 | 0.03 | 69 | 1012.1 |
| 20260502191545 | 13 | 170 | 1.6 | 12.9 | 0.00 | 0.03 | 0.03 | 74 | 1012.3 |
| 20260502190026 | 13 | 300 | 3.2 | 17.7 | 0.00 | 0.03 | 0.03 | 71 | 1012.4 |
| 20260502184521 | 12 | 24 | 3.2 | 9.7 | 0.00 | 0.03 | 0.03 | 74 | 1012.7 |
| 20260502183004 | 11 | 86 | 1.6 | 9.7 | 0.00 | 0.03 | 0.03 | 79 | 1012.8 |
| 20260502181504 | 10 | 255 | 4.8 | 16.1 | 0.00 | 0.03 | 0.03 | 79 | 1012.7 |
| 20260502163039 | 13 | 255 | 1.6 | 6.4 | 0.00 | 0.03 | 0.03 | 75 | 1012.6 |
| 20260502161537 | 12 | 81 | 1.6 | 8.0 | 0.00 | 0.03 | 0.03 | 76 | 1012.9 |
| 20260502151519 | 12 | 85 | 4.8 | 12.9 | 0.00 | 0.03 | 0.03 | 74 | 1013.1 |
| 20260502123031 | 10 | 347 | 0.0 | 1.6 | 0.03 | 0.03 | 0.03 | 90 | 1013.3 |
| 20260502121539 | 9 | 103 | 0.0 | 1.6 | 0.03 | 0.03 | 0.03 | 90 | 1013.1 |
| 20260502114527 | 8 | 38 | 0.0 | 1.6 | 0.03 | 0.03 | 0.03 | 91 | 1013.3 |
| 20260502113026 | 8 | 275 | 0.0 | 3.2 | 0.00 | 0.00 | 0.00 | 92 | 1014.1 |
| 20260502111526 | 8 | 229 | 0.0 | 0.0 | 0.00 | 0.00 | 0.00 | 92 | 1014.0 |
| 20260502110006 | 8 | 243 | 0.0 | 0.0 | 0.00 | 0.00 | 0.00 | 92 | 1013.7 |
| 20260502104506 | 8 | 98 | 0.0 | 0.0 | 0.00 | 0.00 | 0.00 | 92 | 1013.6 |
| 20260502103102 | 8 | 98 | 0.0 | 0.0 | 0.00 | 0.00 | 0.00 | 91 | 1013.5 |
| 20260502101558 | 8 | 98 | 0.0 | 0.0 | 0.00 | 0.00 | 0.00 | 91 | 1013.4 |
| 20260502091516 | 8 | 99 | 0.0 | 0.0 | 0.00 | 0.00 | 0.00 | 89 | 1012.7 |
| 20260502071511 | 8 | 205 | 0.0 | 0.0 | 0.00 | 0.00 | 0.00 | 84 | 1012.9 |
| 20260502070008 | 8 | 139 | 0.0 | 0.0 | 0.00 | 0.00 | 0.00 | 84 | 1012.9 |
| 20260502064502 | 8 | 143 | 0.0 | 1.6 | 0.00 | 0.00 | 0.00 | 84 | 1013.1 |
| 20260502063005 | 8 | 86 | 0.0 | 1.6 | 0.00 | 0.00 | 0.00 | 83 | 1013.0 |
| 20260502061600 | 8 | 153 | 0.0 | 0.0 | 0.00 | 0.00 | 0.00 | 83 | 1013.0 |
| 20260502060034 | 9 | 86 | 0.0 | 3.2 | 0.00 | 0.00 | 0.00 | 83 | 1013.1 |
| 20260502054541 | 9 | 141 | 0.0 | 3.2 | 0.00 | 0.00 | 0.00 | 83 | 1013.2 |
| 20260502053020 | 9 | 267 | 0.0 | 1.6 | 0.00 | 0.00 | 0.00 | 82 | 1013.4 |
| 20260502051518 | 9 | 138 | 0.0 | 1.6 | 0.00 | 0.00 | 0.00 | 81 | 1013.5 |
| 20260502050016 | 8 | 148 | 0.0 | 4.8 | 0.00 | 0.00 | 0.00 | 81 | 1013.6 |
| 20260502044514 | 9 | 115 | 0.0 | 0.0 | 0.00 | 0.00 | 0.00 | 80 | 1013.7 |
| 20260502043011 | 9 | 298 | 0.0 | 1.6 | 0.00 | 0.00 | 0.00 | 78 | 1013.6 |
| 20260502041509 | 10 | 205 | 0.0 | 9.7 | 0.00 | 0.00 | 0.00 | 77 | 1013.7 |
| 20260502040010 | 10 | 176 | 0.0 | 3.2 | 0.00 | 0.00 | 0.00 | 77 | 1013.7 |
| 20260502034507 | 10 | 153 | 0.0 | 4.8 | 0.00 | 0.00 | 0.00 | 76 | 1013.8 |
| 20260502033058 | 10 | 170 | 0.0 | 6.4 | 0.00 | 0.00 | 0.00 | 77 | 1013.6 |
| 20260502031557 | 10 | 150 | 0.0 | 3.2 | 0.00 | 0.00 | 0.00 | 77 | 1013.7 |
| 20260502030058 | 10 | 155 | 0.0 | 3.2 | 0.00 | 0.00 | 0.00 | 76 | 1013.7 |
| 20260502024555 | 10 | 119 | 0.0 | 1.6 | 0.00 | 0.00 | 0.00 | 76 | 1013.7 |
| 20260502023056 | 10 | 141 | 0.0 | 3.2 | 0.00 | 0.00 | 0.00 | 75 | 1013.7 |
| 20260502021554 | 10 | 131 | 0.0 | 1.6 | 0.00 | 0.00 | 0.00 | 75 | 1013.9 |
| 20260502020054 | 10 | 162 | 0.0 | 1.6 | 0.00 | 0.00 | 0.00 | 75 | 1013.7 |
| 20260502014654 | 10 | 143 | 0.0 | 1.6 | 0.00 | 0.00 | 0.00 | 74 | 1013.6 |
| 20260502013043 | 11 | 84 | 0.0 | 3.2 | 0.00 | 0.00 | 0.00 | 73 | 1013.7 |
| 20260502011535 | 11 | 155 | 0.0 | 3.2 | 0.00 | 0.00 | 0.00 | 73 | 1013.7 |
| 20260502010016 | 11 | 142 | 0.0 | 4.8 | 0.00 | 0.03 | 0.00 | 72 | 1013.5 |
| 20260502004531 | 11 | 77 | 0.0 | 6.4 | 0.00 | 0.03 | 0.00 | 72 | 1013.5 |
| 20260502003158 | 11 | 156 | 0.0 | 9.7 | 0.00 | 0.03 | 0.00 | 71 | 1013.3 |
| 20260502001558 | 11 | 149 | 0.0 | 6.4 | 0.00 | 0.03 | 0.00 | 70 | 1013.0 |
| 20260502000054 | 11 | 144 | 0.0 | 9.7 | 0.00 | 0.03 | 0.00 | 68 | 1012.8 |
| 20260501234545 | 12 | 203 | 0.0 | 9.7 | 0.00 | 0.03 | 0.00 | 65 | 1012.4 |
| 20260501233045 | 12 | 162 | 0.0 | 11.3 | 0.00 | 0.03 | 0.00 | 61 | 1012.2 |
| 20260501231544 | 13 | 75 | 3.2 | 16.1 | 0.00 | 0.03 | 0.00 | 51 | 1011.8 |
| 20260501230043 | 14 | 98 | 0.0 | 6.4 | 0.00 | 0.08 | 0.00 | 45 | 1011.5 |
| 20260501224543 | 15 | 110 | 0.0 | 9.7 | 0.00 | 0.08 | 0.00 | 44 | 1011.6 |
| 20260501223042 | 15 | 290 | 1.6 | 9.7 | 0.00 | 0.08 | 0.00 | 45 | 1011.7 |
| 20260501221542 | 16 | 144 | 0.0 | 16.1 | 0.00 | 0.08 | 0.00 | 41 | 1011.4 |
| 20260501220025 | 16 | 117 | 0.0 | 12.9 | 0.00 | 0.08 | 0.00 | 42 | 1011.5 |
| 20260501214524 | 16 | 150 | 0.0 | 12.9 | 0.00 | 0.08 | 0.00 | 42 | 1011.5 |
| 20260501213007 | 16 | 67 | 0.0 | 8.0 | 0.00 | 0.08 | 0.00 | 41 | 1011.5 |
| 20260501211505 | 16 | 291 | 0.0 | 9.7 | 0.00 | 0.08 | 0.00 | 45 | 1011.5 |
| 20260501210105 | 16 | 70 | 4.8 | 11.3 | 0.00 | 0.08 | 0.00 | 42 | 1011.3 |
| 20260501204550 | 17 | 78 | 1.6 | 9.7 | 0.00 | 0.08 | 0.00 | 41 | 1011.4 |
| 20260501203046 | 17 | 186 | 1.6 | 9.7 | 0.00 | 0.08 | 0.00 | 44 | 1011.2 |
| 20260501201530 | 17 | 311 | 0.0 | 11.3 | 0.00 | 0.08 | 0.00 | 47 | 1011.3 |
| 20260501200027 | 16 | 6 | 0.0 | 9.7 | 0.00 | 0.08 | 0.00 | 43 | 1011.3 |